Home > Weather > Ganja > Past weeks

Flag for Azerbaijan Past Weather in Ganja, Azerbaijan — Yesterday and Last 2 Weeks

Now
90 °F

Scattered clouds.


Feels Like: 88 °F
Forecast: 72 / 91 °F
Wind: 9 mph from Northwest

Location: Gyanca Airport

Current Time: Aug 27, 2016 at 12:22:44 PM

Latest Report: Aug 27, 2016 at 11:30 AM


Visibility: N/A

Pressure: 29.98 "Hg

Humidity: 31%

Dew Point: 55 °F

Location of GanjaLocation

Past Weather in Ganja — Graph

°F

Ganja Temperature Yesterday

Maximum temperature yesterday: 95 °F (at 4:30 PM)
Minimum temperature yesterday: 73 °F (at 4:00 AM)
Average temperature yesterday: 84 °F

High & Low Weather Summary for the Past Weeks

 TemperatureHumidityPressure
High100 °F (Aug 13, 4:00 PM)100% (Aug 24, 12:00 AM)30.07 "Hg (Aug 24, 12:00 AM)
Low68 °F (Aug 24, 5:30 AM)10% (Aug 22, 5:00 PM)29.80 "Hg (Aug 12, 3:00 PM)
Average84 °F38%29.93 "Hg
* Reported Aug 12 11:00 AM — Aug 27 11:00 AM, Ganja, Weather by CustomWeather, © 2016

Note: Actual official high and low records may vary slightly from our data, if they occured in-between our weather recording intervals... More about our weather records

Advertising

Ganja Weather History for the Previous 24 Hours

Scroll right to see more
 ConditionsComfort  
Time TempWeatherWind HumidityBarometerVisibility
11:00 AM
Sat, Aug 27
88 °FScattered clouds.9 mph33%29.98 "HgN/A
10:30 AM84 °FScattered clouds.10 mph40%30.01 "HgN/A
10:00 AM84 °FScattered clouds.2 mph37%30.01 "HgN/A
9:30 AM84 °FScattered clouds.No wind37%30.01 "HgN/A
9:00 AM84 °FScattered clouds.9 mph37%30.01 "HgN/A
8:30 AM82 °FScattered clouds.10 mph40%30.04 "HgN/A
8:00 AM81 °FScattered clouds.14 mph39%30.04 "HgN/A
7:30 AM77 °FScattered clouds.7 mph47%30.04 "HgN/A
7:00 AM79 °FPassing clouds.5 mph45%30.01 "HgN/A
5:30 AM77 °FPassing clouds.5 mph42%29.98 "HgN/A
4:30 AM79 °FPassing clouds.7 mph42%29.98 "HgN/A
3:30 AM81 °FPassing clouds.6 mph42%29.98 "HgN/A
3:00 AM81 °FPassing clouds.5 mph39%29.95 "HgN/A
2:30 AM82 °FPassing clouds.6 mph37%29.95 "HgN/A
2:00 AM82 °FPassing clouds.16 mph40%29.95 "HgN/A
1:00 AM82 °FPassing clouds.9 mph37%29.98 "HgN/A
12:30 AM84 °FPassing clouds.9 mph31%29.98 "HgN/A
11:30 PM
Fri, Aug 26
84 °FPassing clouds.7 mph33%29.98 "HgN/A
10:30 PM84 °FThundershowers. Partly cloudy.13 mph35%29.98 "HgN/A
10:00 PM82 °FThunderstorms. Partly cloudy.17 mph37%29.98 "HgN/A
9:30 PM81 °FWarm.N/A42%29.98 "HgN/A
9:00 PM88 °FThundershowers. Partly cloudy.18 mph29%29.95 "HgN/A
8:30 PM90 °FThundershowers. Broken clouds.7 mph41%29.98 "HgN/A
8:00 PM91 °FHot.N/A34%29.95 "HgN/A
7:30 PM91 °FScattered clouds.6 mph34%29.89 "HgN/A
7:00 PM91 °FScattered clouds.9 mph34%29.86 "HgN/A
6:30 PM93 °FScattered clouds.7 mph30%29.86 "HgN/A
5:30 PM95 °FPassing clouds.5 mph28%29.86 "HgN/A
5:00 PM95 °FPassing clouds.6 mph28%29.89 "HgN/A
4:30 PM95 °FPassing clouds.6 mph28%29.86 "HgN/A
4:00 PM93 °FPassing clouds.6 mph32%29.86 "HgN/A
3:30 PM93 °FPassing clouds.8 mph30%29.89 "HgN/A
3:00 PM91 °FPassing clouds.5 mph34%29.89 "HgN/A
2:30 PM91 °FPassing clouds.6 mph34%29.89 "HgN/A
2:00 PM91 °FPassing clouds.6 mph36%29.89 "HgN/A
1:30 PM90 °FPassing clouds.5 mph38%29.92 "HgN/A
1:00 PM88 °FPassing clouds.6 mph40%29.92 "HgN/A
12:30 PM88 °FPassing clouds.5 mph43%29.92 "HgN/A
12:00 PM86 °FPassing clouds.6 mph49%29.95 "HgN/A
Weather by CustomWeather, © 2016

See weather overviewHow to use our weather pages